(276279) = 2002 SH72 = 2008 UD18

Discovered at Palomar on 2002-09-16 by NEAT.

Orbit

Orbit type: Main Belt

Note: WebGL enabled browser required.

epoch2023-02-25.0
epoch JD2460000.5
perihelion date2020-02-15.08343
perihelion JD2458894.58343
argument of perihelion (°)187.70533
ascending node (°)201.49649
inclination (°)5.52304
eccentricity0.0894471
perihelion distance (AU)2.8776953
Tisserand w.r.t. Jupiter3.2
ΔV w.r.t. Earth (km/sec)10.7
semimajor axis (AU)3.1603822
mean anomaly (°)194.00673
mean daily motion (°/day)0.17542620
aphelion distance (AU)3.443
period (years)5.62
P-vector [x]0.87313463
P-vector [y]0.45222975
P-vector [z]0.18200045
Q-vector [x]-0.48620163
Q-vector [y]0.83488760
Q-vector [z]0.25801291
absolute magnitude16.43
phase slope0.15
uncertainty0
referenceMPO 745323
observations used182
oppositions14
arc length (days)11577
first opposition used1991
last opposition used2023
residual rms (arc-secs)0.89
perturbers coarse indicatorM-v
perturbers precise indicator003Ek
first observation date used1991-10-08.0
last observation date used2023-06-19.0
computer nameMPCLINUX
JD of orbit computation2456966.746939
perihelion JD uncertainty (days)2.9841E-04
argument of perihelion uncertainty (°)8.8053E-05
ascending node uncertainty (°)6.6967E-05
inclination uncertainty (°)1.3218E-05
eccentricity uncertainty 1.1014E-07
perihelion distance uncertainty (AU)3.4481E-07
Minimum Orbit Intersection Distances (in AU)
for orbit epoch: 2460000.5, reference: E2023-M63
Mercury2.54326
Venus2.15381
Earth1.88094
Mars1.41997
Jupiter1.98213
Saturn6.00468
Uranus15.0647
Neptune26.974

Observations

186 total observations over interval: 1991 10 08.23742 – 2023 06 19.376648
These data are available for download (format description).

Date (UT) J2000 RA J2000 Dec Magn Location Ref
1991 10 08.23742 00 38 04.93 +05 41 51.3 20.9 V 691 – Steward Observatory, Kitt Peak-Spacewatch MPS 261387
1991 10 08.25798 00 38 04.08 +05 41 43.1   691 – Steward Observatory, Kitt Peak-Spacewatch MPS 261388
1991 10 08.27845 00 38 03.22 +05 41 35.1   691 – Steward Observatory, Kitt Peak-Spacewatch MPS 261388
1997 11 01.46500 03 15 31.13 +14 29 06.0 20.6 V 691 – Steward Observatory, Kitt Peak-Spacewatch MPS 261388
1997 11 01.48864 03 15 30.06 +14 28 58.2 20.3 V 691 – Steward Observatory, Kitt Peak-Spacewatch MPS 261388
1997 11 01.51030 03 15 29.02 +14 28 52.3 20.2 V 691 – Steward Observatory, Kitt Peak-Spacewatch MPS 261388
2002 08 28.34402 23 20 32.31 +01 04 51.4 20.4 R 644 – Palomar Mountain/NEAT MPS 252428
2002 08 28.39958 23 20 30.11 +01 04 34.3 20.4 R 644 – Palomar Mountain/NEAT MPS 252428
2002 08 28.48135 23 20 26.93 +01 04 09.8 20.2 R 644 – Palomar Mountain/NEAT MPS 252428
2002 08 28.49175 23 20 26.52 +01 04 06.5 20.2 R 644 – Palomar Mountain/NEAT MPS 252428
2002 08 28.50227 23 20 26.13 +01 04 03.4 20.2 R 644 – Palomar Mountain/NEAT MPS 252428
2002 09 16.36375 23 07 35.54 -00 44 39.2   644 – Palomar Mountain/NEAT MPS 252428
2002 09 16.38132 23 07 34.81 -00 44 45.5 20.2 R 644 – Palomar Mountain/NEAT MPS 252428
2002 09 16.39199 23 07 34.37 -00 44 49.9 20.1 R 644 – Palomar Mountain/NEAT MPS 252428
2002 09 17.18914 23 07 02.09 -00 49 46.5 20.4 R 644 – Palomar Mountain/NEAT MPS 252428
2002 09 17.25391 23 06 59.35 -00 50 10.4 20.2 R 644 – Palomar Mountain/NEAT MPS 252428
2002 09 18.19234 23 06 21.42 -00 55 59.4   644 – Palomar Mountain/NEAT MPS 252428
2002 09 18.25663 23 06 18.74 -00 56 23.9 20.3 R 644 – Palomar Mountain/NEAT MPS 252428
2008 09 20.29730 01 46 09.29 +11 27 50.0   691 – Steward Observatory, Kitt Peak-Spacewatch MPS 261388
2008 09 20.31492 01 46 08.77 +11 27 45.6   691 – Steward Observatory, Kitt Peak-Spacewatch MPS 261388
2008 09 20.33254 01 46 08.29 +11 27 41.1   691 – Steward Observatory, Kitt Peak-Spacewatch MPS 261388
2008 10 10.25853 01 34 07.29 +09 41 21.8 20.2 V 691 – Steward Observatory, Kitt Peak-Spacewatch MPS 261388
2008 10 10.27615 01 34 06.50 +09 41 15.6 20.1 V 691 – Steward Observatory, Kitt Peak-Spacewatch MPS 261388
2008 10 10.29378 01 34 05.74 +09 41 08.8 20.3 V 691 – Steward Observatory, Kitt Peak-Spacewatch MPS 261388
2008 10 18.36858 01 28 16.51 +08 51 12.8   291 – LPL/Spacewatch II MPS 261808
2008 10 18.37261 01 28 16.34 +08 51 11.2   291 – LPL/Spacewatch II MPS 261808
2008 10 18.37639 01 28 16.17 +08 51 09.9   291 – LPL/Spacewatch II MPS 261808
2008 10 20.23894 01 26 55.78 +08 39 35.2 20.0 V G96 – Mt. Lemmon Survey MPS 261808
2008 10 20.24391 01 26 55.53 +08 39 33.3 19.8 V G96 – Mt. Lemmon Survey MPS 261808
2008 10 20.24892 01 26 55.32 +08 39 31.7 19.8 V G96 – Mt. Lemmon Survey MPS 261808
2008 10 20.25390 01 26 55.10 +08 39 29.8 20.0 V G96 – Mt. Lemmon Survey MPS 261808
2008 11 07.17743 01 15 21.06 +06 57 05.1 20.1 V G96 – Mt. Lemmon Survey MPS 263099
2008 11 07.18398 01 15 20.84 +06 57 01.8 20.5 V G96 – Mt. Lemmon Survey MPS 263099
2008 11 07.19053 01 15 20.59 +06 57 00.2 20.6 V G96 – Mt. Lemmon Survey MPS 263099
2008 11 07.19711 01 15 20.41 +06 56 58.4 20.6 V G96 – Mt. Lemmon Survey MPS 263099
2008 11 24.20410 01 09 05.04 +05 52 40.6 21.2 V G96 – Mt. Lemmon Survey MPS 266396
2008 11 24.21201 01 09 04.93 +05 52 39.3 21.1 V G96 – Mt. Lemmon Survey MPS 266396
2008 11 24.22000 01 09 04.82 +05 52 37.9 20.9 V G96 – Mt. Lemmon Survey MPS 266396
2008 11 24.22806 01 09 04.75 +05 52 36.8 20.9 V G96 – Mt. Lemmon Survey MPS 266396
2008 12 31.10459 01 16 57.72 +06 03 23.5 21.5 V G96 – Mt. Lemmon Survey MPS 270063
2008 12 31.11293 01 16 58.04 +06 03 25.5 21.4 V G96 – Mt. Lemmon Survey MPS 270063
2008 12 31.12125 01 16 58.26 +06 03 27.0 21.4 V G96 – Mt. Lemmon Survey MPS 270063
2008 12 31.12953 01 16 58.62 +06 03 27.6 21.6 V G96 – Mt. Lemmon Survey MPS 270063
2011 03 29.42164 12 06 21.85 -03 13 11.0 20.9 V G96 – Mt. Lemmon Survey MPS 375494
2011 03 29.42572 12 06 21.67 -03 13 09.4 21.2 V G96 – Mt. Lemmon Survey MPS 375494
2011 03 29.42981 12 06 21.49 -03 13 07.4 20.6 V G96 – Mt. Lemmon Survey MPS 375494
2011 03 29.43391 12 06 21.31 -03 13 06.8 20.7 V G96 – Mt. Lemmon Survey MPS 375494
2011 03 31.37747 12 05 01.715 -03 01 49.09 21.5 w F51 – Pan-STARRS 1, Haleakala MPS 377105
2011 03 31.39403 12 05 01.006 -03 01 43.22 21.7 w F51 – Pan-STARRS 1, Haleakala MPS 377105
2011 03 31.40956 12 05 00.347 -03 01 37.87 21.6 w F51 – Pan-STARRS 1, Haleakala MPS 377105
2011 04 29.18190 11 49 45.76 -00 38 44.8 21.9 V G96 – Mt. Lemmon Survey MPS 380009
2011 04 29.18793 11 49 45.69 -00 38 43.7 21.9 V G96 – Mt. Lemmon Survey MPS 380009
2011 04 29.19411 11 49 45.55 -00 38 42.1 21.9 V G96 – Mt. Lemmon Survey MPS 380009
2011 04 29.20024 11 49 45.40 -00 38 41.2 22.1 V G96 – Mt. Lemmon Survey MPS 380009
2012 06 15.27385 16 16 04.11 -15 19 42.0 21.6 V G96 – Mt. Lemmon Survey MPS 427244
2012 06 15.27904 16 16 03.90 -15 19 41.3 21.3 V G96 – Mt. Lemmon Survey MPS 427244
2012 06 15.28429 16 16 03.61 -15 19 40.4 21.9 V G96 – Mt. Lemmon Survey MPS 427244
2012 06 15.28958 16 16 03.43 -15 19 40.5 21.5 V G96 – Mt. Lemmon Survey MPS 427244
2013 08 18.44386 21 41 26.481 -06 32 34.47 20.2 i F51 – Pan-STARRS 1, Haleakala MPS 474289
2013 08 18.45454 21 41 25.986 -06 32 37.54 20.2 i F51 – Pan-STARRS 1, Haleakala MPS 474289
2013 08 18.47548 21 41 25.028 -06 32 43.43 20.4 r F51 – Pan-STARRS 1, Haleakala MPS 474289
2014 10 25.43882 04 14 27.64 +16 55 08.1 20.5 r G45 – Space Surveillance Telescope, Atom Site MPS 558019
2014 10 25.45001 04 14 27.25 +16 55 06.0 21.1 r G45 – Space Surveillance Telescope, Atom Site MPS 558019
2014 10 25.46116 04 14 26.90 +16 55 02.6 20.5 r G45 – Space Surveillance Telescope, Atom Site MPS 558019
2014 10 25.49421 04 14 25.91 +16 54 55.6 20.5 r G45 – Space Surveillance Telescope, Atom Site MPS 558019
2014 11 04.35031 04 08 36.79 +16 17 12.5   691 – Steward Observatory, Kitt Peak-Spacewatch MPS 544770
2014 11 04.37106 04 08 35.93 +16 17 07.3   691 – Steward Observatory, Kitt Peak-Spacewatch MPS 544770
2014 11 04.38626 04 08 35.26 +16 17 03.4   691 – Steward Observatory, Kitt Peak-Spacewatch MPS 544770
2014 11 16.29264 03 59 37.89 +15 28 48.9 21.0 V 703 – Catalina Sky Survey MPS 547336
2014 11 16.29308 03 59 37.83 +15 28 48.5 19.9 V G96 – Mt. Lemmon Survey MPS 547336
2014 11 16.29765 03 59 37.62 +15 28 47.4 19.9 V G96 – Mt. Lemmon Survey MPS 547336
2014 11 16.29816 03 59 37.57 +15 28 47.4 20.1 V 703 – Catalina Sky Survey MPS 547336
2014 11 16.30222 03 59 37.38 +15 28 46.6 20.0 V G96 – Mt. Lemmon Survey MPS 547336
2014 11 16.30368 03 59 37.23 +15 28 47.2 20.7 V 703 – Catalina Sky Survey MPS 547336
2014 11 16.30679 03 59 37.15 +15 28 45.4 19.8 V G96 – Mt. Lemmon Survey MPS 547336
2014 11 26.19189 03 51 31.63 +14 50 03.8 20.4 V 691 – Steward Observatory, Kitt Peak-Spacewatch MPS 549371
2014 11 26.21222 03 51 30.63 +14 49 59.3 20.3 V 691 – Steward Observatory, Kitt Peak-Spacewatch MPS 549371
2014 11 26.23255 03 51 29.60 +14 49 54.4 20.5 V 691 – Steward Observatory, Kitt Peak-Spacewatch MPS 549371
2014 11 26.30405 03 51 26.227 +14 49 39.28 20.3 w F51 – Pan-STARRS 1, Haleakala MPS 551253
2014 11 26.31527 03 51 25.653 +14 49 36.79 20.3 w F51 – Pan-STARRS 1, Haleakala MPS 551253
2014 11 26.32646 03 51 25.092 +14 49 34.36 20.4 w F51 – Pan-STARRS 1, Haleakala MPS 551253
2014 11 26.33767 03 51 24.531 +14 49 31.83 20.3 w F51 – Pan-STARRS 1, Haleakala MPS 551253
2014 12 11.18357 03 40 18.69 +14 01 52.8   691 – Steward Observatory, Kitt Peak-Spacewatch MPS 552886
2014 12 11.20745 03 40 17.70 +14 01 48.6   691 – Steward Observatory, Kitt Peak-Spacewatch MPS 552886
2014 12 11.23134 03 40 16.77 +14 01 45.1   691 – Steward Observatory, Kitt Peak-Spacewatch MPS 552886
2014 12 17.92420 03 36 18.88 +13 46 39.1 20.5   J43 – Oukaimeden Observatory, Marrakech MPS 559890
2014 12 17.93722 03 36 18.39 +13 46 37.9 20.1   J43 – Oukaimeden Observatory, Marrakech MPS 559890
2014 12 17.95023 03 36 18.00 +13 46 36.0 21.3   J43 – Oukaimeden Observatory, Marrakech MPS 559890
2014 12 17.96325 03 36 17.49 +13 46 34.4 20.1   J43 – Oukaimeden Observatory, Marrakech MPS 559890
2014 12 23.07539 03 33 51.94 +13 38 16.3   691 – Steward Observatory, Kitt Peak-Spacewatch MPS 559890
